Notices

What's New in latest Release from April 7th, 2021:

- Updated Glossary, including Speed of Maximum Gust, and Total Hourly Precipitation

- Updated national and regional climate services offices contacts and prices information

- Addition of station inventory lists for 1981-2010, 1971-2000, and 1961-1990 Normals.

If you haven't already, please take our survey and provide feedback about our website: https://eccc.sondage-survey.ca/f/LanguageSelection.aspx?s=442ca660-fcf1-47c0-95a9-59707d6fd709

Hourly Data Report for June 13, 2003

TORONTO CITY
ONTARIO

43°40'00.000" N
79°24'00.000" W
112.50 m
6158355
71508
XTO

Download Data

Hourly Data (June 2003)
Hourly Data Report for June 13, 2003
TIME
LST
Temp Definition
°C
Dew Point Definition
°C
Rel Hum Definition
%
Precip. Amount Definition
mm

Wind Dir Definition
10's deg

Wind Spd Definition
km/h
Visibility Definition
km
Stn Press Definition
kPa
Hmdx Definition


Wind Chill Definition


Weather Definition


00:00 17.1 13.6 80   LegendMM LegendMM LegendMM 99.62     LegendNANA
01:00 17.4 14.1 81   LegendMM LegendMM LegendMM 99.54     LegendNANA
02:00 15.3 14.2 93   LegendMM LegendMM LegendMM 99.49     LegendNANA
03:00 16.0 15.2 95   LegendMM LegendMM LegendMM 99.43     LegendNANA
04:00 16.1 15.5 96   LegendMM LegendMM LegendMM 99.40     LegendNANA
05:00 15.3 14.8 97   LegendMM LegendMM LegendMM 99.38     LegendNANA
06:00 15.0 14.5 97   LegendMM LegendMM LegendMM 99.40     LegendNANA
07:00 14.4 14.1 98   LegendMM LegendMM LegendMM 99.40     LegendNANA
08:00 14.1 13.8 98   LegendMM LegendMM LegendMM 99.42     LegendNANA
09:00 14.4 14.3 99   LegendMM LegendMM LegendMM 99.38     LegendNANA
10:00 13.4 13.3 99   LegendMM LegendMM LegendMM 99.40     LegendNANA
11:00 13.0 12.9 99   LegendMM LegendMM LegendMM 99.42     LegendNANA
12:00 14.2 14.1 99   LegendMM LegendMM LegendMM 99.46     LegendNANA
13:00 15.9 15.8 99   LegendMM LegendMM LegendMM 99.42     LegendNANA
14:00 17.6 17.0 96   LegendMM LegendMM LegendMM 99.45     LegendNANA
15:00 16.6 15.8 95   LegendMM LegendMM LegendMM 99.47     LegendNANA
16:00 17.0 16.2 95   LegendMM LegendMM LegendMM 99.48     LegendNANA
17:00 17.5 16.9 96   LegendMM LegendMM LegendMM 99.47     LegendNANA
18:00 17.9 17.4 97   LegendMM LegendMM LegendMM 99.48     LegendNANA
19:00 18.1 17.6 97   LegendMM LegendMM LegendMM 99.53     LegendNANA
20:00 17.7 17.4 98   LegendMM LegendMM LegendMM 99.53     LegendNANA
21:00 17.6 17.3 98   LegendMM LegendMM LegendMM 99.57     LegendNANA
22:00 17.5 17.2 98   LegendMM LegendMM LegendMM 99.61     LegendNANA
23:00 16.1 15.6 97   LegendMM LegendMM LegendMM 99.63     LegendNANA

Notes on Data Quality.

Legend

  • E = Estimated
  • M = Missing
  • NA = Not Available*
  • [empty] = Indicates an unobserved value
Date modified: